Location: Olsztyn
(53.7767°N, 20.4765°E)
Time: 08:39:34
(UTC+01:00)

Transit 4A - Pass Details

Date: 07 October 2022
Orbit: 871 x 972 km, 66.8° (Epoch: 06 December)

Event Time Altitude Azimuth Distance (km) Brightness Sun altitude
Exits shadow 04:35:28 - 317° (NW) 3,257 10.5 -20.5°
Reaches altitude 10° 04:37:24 10° 323° (NW) 2,565 10.0 -20.2°
Maximum altitude 04:43:03 43° 34° (NE) 1,212 8.9 -19.4°
Drops below altitude 10° 04:48:35 10° 106° (ESE) 2,523 11.0 -18.6°
Sets 04:51:11 0° 113° (ESE) 3,457 11.7 -18.3°
